VOI238 MMPR-MMAA

Flight info

Callsign VOI238
Flight time 1h 4m
Altitude 33000
Route DETBO2 DETBO UJ9 ACA
Aircraft A320/M-SDE3FGHIRWY/LB1

Departure

Time 2026-05-06 02:16
Airport Puerto Vallarta International Airport (MMPR)

Arrival

Time 2026-05-06 03:20
Airport General Juan N. Álvarez International Airport (MMAA)
Time Latitude Longitude Altitude Speed Heading
2026-05-06 01:55 20.68082 -105.24683 24 ft 0 kts 227°
2026-05-06 02:06 20.68086 -105.24678 3 ft 4 kts 227°
2026-05-06 02:06 20.68103 -105.24656 31 ft 4 kts 237°
2026-05-06 02:07 20.68114 -105.24631 26 ft 4 kts 270°
2026-05-06 02:07 20.68108 -105.24612 24 ft 1 kts 316°
2026-05-06 02:07 20.68108 -105.24611 24 ft 0 kts 317°
2026-05-06 02:10 20.68121 -105.24622 26 ft 5 kts 321°
2026-05-06 02:11 20.68128 -105.24628 25 ft 1 kts 321°
2026-05-06 02:11 20.68146 -105.24646 24 ft 6 kts 317°
2026-05-06 02:11 20.68187 -105.24685 24 ft 10 kts 317°
2026-05-06 02:11 20.68260 -105.24697 24 ft 12 kts 13°
2026-05-06 02:12 20.68343 -105.24670 25 ft 13 kts 17°
2026-05-06 02:12 20.68437 -105.24637 28 ft 15 kts 24°
2026-05-06 02:12 20.68520 -105.24572 27 ft 15 kts 45°
2026-05-06 02:12 20.68601 -105.24488 29 ft 17 kts 42°
2026-05-06 02:13 20.68676 -105.24391 27 ft 18 kts 46°
2026-05-06 02:13 20.68738 -105.24323 27 ft 0 kts 46°
2026-05-06 02:13 20.68744 -105.24316 27 ft 2 kts 45°
2026-05-06 02:13 20.68761 -105.24298 27 ft 4 kts 45°
2026-05-06 02:14 20.68789 -105.24272 27 ft 7 kts 35°
2026-05-06 02:14 20.68857 -105.24275 27 ft 12 kts 327°
2026-05-06 02:14 20.68923 -105.24335 27 ft 6 kts 313°
2026-05-06 02:14 20.68927 -105.24360 27 ft 7 kts 257°
2026-05-06 02:15 20.68840 -105.24469 28 ft 35 kts 226°
2026-05-06 02:15 20.68518 -105.24835 24 ft 99 kts 227°
2026-05-06 02:15 20.67928 -105.25518 25 ft 146 kts 226°
2026-05-06 02:15 20.67166 -105.26393 300 ft 161 kts 227°
2026-05-06 02:16 20.66408 -105.27227 979 ft 157 kts 225°
2026-05-06 02:16 20.65637 -105.28033 1592 ft 157 kts 223°
2026-05-06 02:16 20.64816 -105.28854 2036 ft 170 kts 224°
2026-05-06 02:16 20.63927 -105.29784 2291 ft 190 kts 225°
2026-05-06 02:17 20.62959 -105.30829 2603 ft 208 kts 225°
2026-05-06 02:17 20.61906 -105.31978 2966 ft 222 kts 225°
2026-05-06 02:17 20.60795 -105.33203 3321 ft 240 kts 226°
2026-05-06 02:17 20.59589 -105.34547 3718 ft 260 kts 227°
2026-05-06 02:18 20.58267 -105.35942 4283 ft 272 kts 218°
2026-05-06 02:18 20.56567 -105.36852 5033 ft 279 kts 198°
2026-05-06 02:18 20.54627 -105.37051 5711 ft 287 kts 170°
2026-05-06 02:18 20.52825 -105.36146 6435 ft 292 kts 137°
2026-05-06 02:19 20.51603 -105.34412 7117 ft 295 kts 119°
2026-05-06 02:19 20.50729 -105.32413 7832 ft 298 kts 111°
2026-05-06 02:19 20.50067 -105.30309 8529 ft 301 kts 105°
2026-05-06 02:19 20.49577 -105.28136 9253 ft 303 kts 101°
2026-05-06 02:20 20.49175 -105.23609 10273 ft 323 kts 90°
2026-05-06 02:20 20.49340 -105.21139 10398 ft 345 kts 82°
2026-05-06 02:20 20.49822 -105.18561 10514 ft 365 kts 75°
2026-05-06 02:21 20.50643 -105.15964 10895 ft 371 kts 68°
2026-05-06 02:21 20.51626 -105.13424 11430 ft 373 kts 72°
2026-05-06 02:21 20.52250 -105.10732 11977 ft 374 kts 83°
2026-05-06 02:21 20.52370 -105.07974 12530 ft 374 kts 96°
2026-05-06 02:22 20.51925 -105.05251 13120 ft 373 kts 109°
2026-05-06 02:22 20.50924 -105.02707 13693 ft 371 kts 122°
2026-05-06 02:22 20.49437 -105.00475 14197 ft 370 kts 134°
2026-05-06 02:22 20.47692 -104.98434 14703 ft 373 kts 134°
2026-05-06 02:23 20.45941 -104.96380 15202 ft 375 kts 134°
2026-05-06 02:23 20.44184 -104.94308 15677 ft 378 kts 134°
2026-05-06 02:23 20.42423 -104.92218 16125 ft 380 kts 134°
2026-05-06 02:23 20.40649 -104.90111 16582 ft 383 kts 133°
2026-05-06 02:24 20.38888 -104.88021 17095 ft 385 kts 134°
2026-05-06 02:24 20.37085 -104.85885 17523 ft 390 kts 134°
2026-05-06 02:24 20.35263 -104.83731 17910 ft 393 kts 134°
2026-05-06 02:24 20.33414 -104.81548 18016 ft 402 kts 134°
2026-05-06 02:25 20.31515 -104.79309 18027 ft 416 kts 134°
2026-05-06 02:25 20.29537 -104.76979 18026 ft 429 kts 134°
2026-05-06 02:25 20.27511 -104.74589 18089 ft 440 kts 134°
2026-05-06 02:25 20.25474 -104.72183 18648 ft 435 kts 134°
2026-05-06 02:26 20.23441 -104.69784 19087 ft 435 kts 134°
2026-05-06 02:26 20.21352 -104.67324 19584 ft 432 kts 134°
2026-05-06 02:26 20.19410 -104.65035 20073 ft 430 kts 134°
2026-05-06 02:26 20.17401 -104.62671 20532 ft 430 kts 134°
2026-05-06 02:27 20.15394 -104.60312 20987 ft 430 kts 135°
2026-05-06 02:27 20.13385 -104.57954 21374 ft 430 kts 135°
2026-05-06 02:27 20.11390 -104.55608 22009 ft 423 kts 135°
2026-05-06 02:27 20.09436 -104.53311 22785 ft 416 kts 135°
2026-05-06 02:28 20.07494 -104.51031 23257 ft 415 kts 135°
2026-05-06 02:28 20.05560 -104.48764 23643 ft 415 kts 135°
2026-05-06 02:28 20.03622 -104.46491 24063 ft 414 kts 135°
2026-05-06 02:28 20.01698 -104.44234 24407 ft 413 kts 135°
2026-05-06 02:29 19.99763 -104.41963 24771 ft 414 kts 135°
2026-05-06 02:29 19.97831 -104.39695 25152 ft 414 kts 135°
2026-05-06 02:29 19.95899 -104.37432 25552 ft 413 kts 135°
2026-05-06 02:29 19.93968 -104.35169 25955 ft 413 kts 135°
2026-05-06 02:30 19.92031 -104.32902 26248 ft 416 kts 135°
2026-05-06 02:30 19.90072 -104.30615 26503 ft 419 kts 135°
2026-05-06 02:30 19.88110 -104.28323 26770 ft 422 kts 135°
2026-05-06 02:30 19.86103 -104.25978 27091 ft 424 kts 135°
2026-05-06 02:31 19.84112 -104.23655 27380 ft 427 kts 135°
2026-05-06 02:31 19.82106 -104.21312 27664 ft 429 kts 135°
2026-05-06 02:31 19.80092 -104.18957 27957 ft 432 kts 135°
2026-05-06 02:31 19.78072 -104.16598 28235 ft 435 kts 135°
2026-05-06 02:32 19.76051 -104.14243 28517 ft 437 kts 135°
2026-05-06 02:32 19.73972 -104.11821 28820 ft 440 kts 135°
2026-05-06 02:32 19.71933 -104.09447 29116 ft 443 kts 135°
2026-05-06 02:32 19.69849 -104.07019 29415 ft 446 kts 135°
2026-05-06 02:33 19.67758 -104.04583 29699 ft 448 kts 135°
2026-05-06 02:33 19.66334 -104.02923 29886 ft 450 kts 135°
2026-05-06 02:33 19.61366 -103.97143 30465 ft 456 kts 135°
2026-05-06 02:34 19.59227 -103.94654 30707 ft 459 kts 135°
2026-05-06 02:34 19.57098 -103.92178 30966 ft 460 kts 135°
2026-05-06 02:34 19.54939 -103.89666 31236 ft 463 kts 135°
2026-05-06 02:34 19.52766 -103.87142 31480 ft 465 kts 135°
2026-05-06 02:35 19.50572 -103.84599 31733 ft 467 kts 135°
2026-05-06 02:35 19.48376 -103.82054 31963 ft 470 kts 135°
2026-05-06 02:35 19.46170 -103.79494 32214 ft 472 kts 135°
2026-05-06 02:35 19.43956 -103.76924 32470 ft 474 kts 135°
2026-05-06 02:36 19.41718 -103.74333 32707 ft 476 kts 135°
2026-05-06 02:36 19.39478 -103.71742 32918 ft 478 kts 135°
2026-05-06 02:36 19.37986 -103.70019 32977 ft 479 kts 135°
2026-05-06 02:37 19.33487 -103.64811 33006 ft 479 kts 135°
2026-05-06 02:37 19.28994 -103.59607 33007 ft 479 kts 135°
2026-05-06 02:38 19.24573 -103.54350 33006 ft 477 kts 133°
2026-05-06 02:38 19.20376 -103.48934 33001 ft 477 kts 131°
2026-05-06 02:39 19.16206 -103.43469 32984 ft 477 kts 131°
2026-05-06 02:39 19.11992 -103.38047 32968 ft 477 kts 132°
2026-05-06 02:40 19.07773 -103.32674 32938 ft 472 kts 132°
2026-05-06 02:40 19.03606 -103.27342 32915 ft 468 kts 132°
2026-05-06 02:41 18.99485 -103.22074 32953 ft 462 kts 132°
2026-05-06 02:41 18.95399 -103.16877 32941 ft 458 kts 132°
2026-05-06 02:42 18.91334 -103.11732 32956 ft 454 kts 133°
2026-05-06 02:42 18.87298 -103.06616 32961 ft 452 kts 133°
2026-05-06 02:43 18.83286 -103.01529 32935 ft 449 kts 133°
2026-05-06 02:43 18.79326 -102.96502 32953 ft 447 kts 133°
2026-05-06 02:44 18.75354 -102.91465 32934 ft 446 kts 133°
2026-05-06 02:44 18.71385 -102.86452 32933 ft 444 kts 133°
2026-05-06 02:45 18.67426 -102.81461 32947 ft 443 kts 133°
2026-05-06 02:45 18.63473 -102.76477 32934 ft 442 kts 133°
2026-05-06 02:46 18.59541 -102.71514 32941 ft 440 kts 133°
2026-05-06 02:46 18.55616 -102.66569 32938 ft 438 kts 133°
2026-05-06 02:47 18.51713 -102.61650 32933 ft 437 kts 133°
2026-05-06 02:47 18.47826 -102.56751 32932 ft 434 kts 133°
2026-05-06 02:48 18.43979 -102.51909 32932 ft 432 kts 133°
2026-05-06 02:48 18.40127 -102.47073 32932 ft 430 kts 133°
2026-05-06 02:49 18.36221 -102.42204 32929 ft 444 kts 133°
2026-05-06 02:49 18.32143 -102.37150 32938 ft 462 kts 133°
2026-05-06 02:50 18.27940 -102.31895 32921 ft 474 kts 132°
2026-05-06 02:50 18.23726 -102.26603 32917 ft 476 kts 132°
2026-05-06 02:51 18.19481 -102.21272 32918 ft 476 kts 132°
2026-05-06 02:51 18.15227 -102.15942 32913 ft 476 kts 132°
2026-05-06 02:52 18.10969 -102.10620 32910 ft 476 kts 132°
2026-05-06 02:52 18.06699 -102.05305 32913 ft 476 kts 133°
2026-05-06 02:53 18.02435 -101.99990 32922 ft 476 kts 132°
2026-05-06 02:53 17.98196 -101.94704 32924 ft 475 kts 132°
2026-05-06 02:54 17.93930 -101.89395 32930 ft 475 kts 132°
2026-05-06 02:54 17.89663 -101.84098 32930 ft 475 kts 132°
2026-05-06 02:55 17.85399 -101.78792 32936 ft 475 kts 132°
2026-05-06 02:55 17.81151 -101.73506 32953 ft 475 kts 132°
2026-05-06 02:56 17.76867 -101.68189 32921 ft 475 kts 132°
2026-05-06 02:56 17.72603 -101.62891 32903 ft 475 kts 132°
2026-05-06 02:57 17.68334 -101.57595 32903 ft 476 kts 132°
2026-05-06 02:57 17.64194 -101.52477 32893 ft 476 kts 132°
2026-05-06 02:58 17.60084 -101.47036 32888 ft 478 kts 123°
2026-05-06 02:58 17.57002 -101.40850 32952 ft 480 kts 119°
2026-05-06 02:59 17.53988 -101.34604 32941 ft 480 kts 119°
2026-05-06 02:59 17.50965 -101.28375 32955 ft 480 kts 119°
2026-05-06 03:00 17.47934 -101.22143 32954 ft 480 kts 119°
2026-05-06 03:00 17.44924 -101.15941 32947 ft 480 kts 119°
2026-05-06 03:01 17.41919 -101.09755 32939 ft 479 kts 118°
2026-05-06 03:01 17.38902 -101.03548 32941 ft 479 kts 119°
2026-05-06 03:02 17.35852 -100.97309 32955 ft 478 kts 119°
2026-05-06 03:02 17.32839 -100.91146 32516 ft 478 kts 119°
2026-05-06 03:02 17.31325 -100.88047 32040 ft 477 kts 119°
2026-05-06 03:03 17.29817 -100.84954 31485 ft 477 kts 118°
2026-05-06 03:03 17.28317 -100.81874 30981 ft 477 kts 118°
2026-05-06 03:03 17.26814 -100.78790 30471 ft 476 kts 118°
2026-05-06 03:03 17.25303 -100.75703 29968 ft 476 kts 118°
2026-05-06 03:04 17.23786 -100.72614 29396 ft 476 kts 119°
2026-05-06 03:04 17.22271 -100.69533 28820 ft 476 kts 118°
2026-05-06 03:04 17.20757 -100.66450 28259 ft 476 kts 118°
2026-05-06 03:04 17.19250 -100.63369 27705 ft 476 kts 118°
2026-05-06 03:05 17.17751 -100.60298 27051 ft 475 kts 118°
2026-05-06 03:05 17.16237 -100.57198 25885 ft 480 kts 118°
2026-05-06 03:05 17.14718 -100.54096 25046 ft 477 kts 118°
2026-05-06 03:05 17.13214 -100.51028 24290 ft 472 kts 118°
2026-05-06 03:06 17.11741 -100.48029 23606 ft 466 kts 117°
2026-05-06 03:06 17.10265 -100.45027 22856 ft 465 kts 117°
2026-05-06 03:06 17.08790 -100.42032 22109 ft 461 kts 117°
2026-05-06 03:06 17.07309 -100.39034 21362 ft 456 kts 117°
2026-05-06 03:07 17.05865 -100.36105 20614 ft 452 kts 117°
2026-05-06 03:07 17.04450 -100.33228 19927 ft 447 kts 117°
2026-05-06 03:07 17.03042 -100.30361 19241 ft 443 kts 117°
2026-05-06 03:07 17.01640 -100.27511 18573 ft 439 kts 117°
2026-05-06 03:08 17.00249 -100.24689 17963 ft 435 kts 117°
2026-05-06 03:08 16.98986 -100.21831 17328 ft 431 kts 110°
2026-05-06 03:08 16.98055 -100.18868 16714 ft 430 kts 108°
2026-05-06 03:08 16.97135 -100.15895 16104 ft 429 kts 108°
2026-05-06 03:09 16.96228 -100.12969 15535 ft 426 kts 108°
2026-05-06 03:09 16.95319 -100.10043 14950 ft 422 kts 107°
2026-05-06 03:09 16.94413 -100.07139 14377 ft 419 kts 107°
2026-05-06 03:09 16.93511 -100.04249 13784 ft 416 kts 107°
2026-05-06 03:10 16.92622 -100.01394 13159 ft 413 kts 107°
2026-05-06 03:10 16.91733 -99.98541 12547 ft 411 kts 107°
2026-05-06 03:10 16.90854 -99.95727 11950 ft 409 kts 107°
2026-05-06 03:10 16.89971 -99.92901 11349 ft 407 kts 108°
2026-05-06 03:11 16.89097 -99.90105 10764 ft 401 kts 108°
2026-05-06 03:11 16.88244 -99.87374 10363 ft 389 kts 108°
2026-05-06 03:11 16.87426 -99.84746 10225 ft 370 kts 107°
2026-05-06 03:11 16.86654 -99.82262 10105 ft 350 kts 107°
2026-05-06 03:12 16.85940 -99.79967 9986 ft 323 kts 107°
2026-05-06 03:12 16.85257 -99.77779 9769 ft 306 kts 107°
2026-05-06 03:12 16.84618 -99.75738 9362 ft 296 kts 108°
2026-05-06 03:12 16.83980 -99.73704 8910 ft 291 kts 107°
2026-05-06 03:13 16.83349 -99.71686 8188 ft 295 kts 108°
2026-05-06 03:13 16.82711 -99.69647 7443 ft 298 kts 108°
2026-05-06 03:13 16.82068 -99.67590 6817 ft 297 kts 109°
2026-05-06 03:13 16.81432 -99.65560 6386 ft 290 kts 108°
2026-05-06 03:14 16.80814 -99.63585 5976 ft 283 kts 108°
2026-05-06 03:14 16.80207 -99.61652 5585 ft 276 kts 108°
2026-05-06 03:14 16.79620 -99.59782 5212 ft 268 kts 108°
2026-05-06 03:14 16.78961 -99.58003 4852 ft 259 kts 123°
2026-05-06 03:15 16.77633 -99.56830 4501 ft 248 kts 162°
2026-05-06 03:15 16.75988 -99.56751 4132 ft 234 kts 198°
2026-05-06 03:15 16.74474 -99.57272 3794 ft 227 kts 202°
2026-05-06 03:15 16.73013 -99.57786 3455 ft 221 kts 202°
2026-05-06 03:16 16.71660 -99.58462 3112 ft 210 kts 229°
2026-05-06 03:16 16.71010 -99.59754 2806 ft 201 kts 265°
2026-05-06 03:16 16.71254 -99.61183 2413 ft 205 kts 288°
2026-05-06 03:16 16.71705 -99.62603 2113 ft 204 kts 287°
2026-05-06 03:17 16.72134 -99.63970 1807 ft 190 kts 287°
2026-05-06 03:17 16.72521 -99.65203 1572 ft 166 kts 287°
2026-05-06 03:17 16.72856 -99.66271 1389 ft 148 kts 287°
2026-05-06 03:17 16.73165 -99.67258 1196 ft 140 kts 288°
2026-05-06 03:18 16.73447 -99.68159 1022 ft 138 kts 288°
2026-05-06 03:18 16.73744 -99.69106 853 ft 139 kts 287°
2026-05-06 03:18 16.74040 -99.70053 701 ft 136 kts 289°
2026-05-06 03:18 16.74332 -99.70996 517 ft 136 kts 288°
2026-05-06 03:19 16.74624 -99.71932 345 ft 138 kts 290°
2026-05-06 03:19 16.74935 -99.72877 199 ft 136 kts 285°
2026-05-06 03:19 16.75216 -99.73806 37 ft 134 kts 287°
2026-05-06 03:19 16.75466 -99.74623 22 ft 99 kts 288°
2026-05-06 03:20 16.75720 -99.75406 26 ft 36 kts 287°
2026-05-06 03:20 16.75772 -99.75592 27 ft 16 kts 305°
2026-05-06 03:20 16.75863 -99.75545 27 ft 20 kts 62°
2026-05-06 03:21 16.75887 -99.75491 24 ft 2 kts 66°
2026-05-06 03:21 16.75897 -99.75467 23 ft 5 kts 66°
2026-05-06 03:21 16.75905 -99.75450 24 ft 0 kts 66°
2026-05-06 03:21 16.75907 -99.75445 25 ft 2 kts 66°
2026-05-06 03:22 16.75920 -99.75422 25 ft 4 kts 40°
2026-05-06 03:22 16.75957 -99.75414 23 ft 7 kts 14°
2026-05-06 03:22 16.75999 -99.75424 23 ft 7 kts 293°
2026-05-06 03:22 16.76010 -99.75476 23 ft 7 kts 268°
2026-05-06 03:23 16.75968 -99.75501 23 ft 8 kts 180°
2026-05-06 03:23 16.75950 -99.75505 23 ft 2 kts 202°
2026-05-06 03:23 16.75947 -99.75506 23 ft 0 kts 198°